Regional Weather Roundup
Issued by NWS Upton, NY

Home | Current Version | Previous Version | Text Only | Print | Product List | Glossary On
Versions: 1 2 3 4 5 6 7 8 9 10 11 12 13 14 15 16 17 18 19 20 21 22 23 24 25 26 27 28 29 30 31 32 33 34 35 36 37 38 39 40 41 42 43 44 45 46 47 48 49 50
000
ASUS41 KOKX 231805
RWROKX

REGIONAL WEATHER ROUNDUP
NATIONAL WEATHER SERVICE NEW YORK NY
200 PM EDT WED JUL 23 2014

NOTE: "FAIR" INDICATES FEW OR NO CLOUDS BELOW 12,000 FEET WITH NO
SIGNIFICANT WEATHER AND/OR OBSTRUCTIONS TO VISIBILITY.

NYZ071-072-176-178-NJZ106-104-231900-
NEW YORK CITY METRO AREA


CITY           SKY/WX    TMP DP  RH WIND       PRES   REMARKS
CENTRAL PARK   PTSUNNY   85  72  65 SW7       29.90F HX  91
LAGUARDIA APRT MOSUNNY   87  72  60 S15G22    29.87F HX  93
KENNEDY INTL   MOSUNNY   83  72  69 S15       29.90F
NEWARK/LIBERTY PTSUNNY   89  71  55 S10G20    29.86F HX  95
BRNX BOT. GARD   N/A     86  72  62 SE9       29.88S HX  92
TETERBORO      PTSUNNY   92  71  50 S12       29.85F HX  98
$$

NYZ177-179-078>081-231900-
LONG ISLAND NEW YORK

CITY           SKY/WX    TMP DP  RH WIND       PRES   REMARKS
FARMINGDALE    SUNNY     82  72  71 S15       29.90F
ISLIP          MOSUNNY   84  71  65 S14       29.89F
SHIRLEY        SUNNY     81  70  69 S13G21    29.91F
WESTHAMPTON    SUNNY     80  69  69 SW13G21   29.92F
MONTAUK POINT    N/A     78  69  73 SW9       29.91F
$$

NYZ052-065-067-231900-
HUDSON VALLEY

CITY           SKY/WX    TMP DP  RH WIND       PRES   REMARKS
WHITE PLAINS   MOSUNNY   86  72  62 S10G16    29.88F HX  92
NEWBURGH       MOSUNNY   88  73  62 SW12      29.87F HX  96
MONTGOMERY     MOSUNNY   90  72  55 SW12      29.84F HX  97
POUGHKEEPSIE   MOSUNNY   88  72  58 S8        29.82F HX  94
ALBANY         PTSUNNY   89  73  59 S12       29.79F HX  97
$$

NJZ001-105-106-008-010-013-015-019>022-104-231900-
NEW JERSEY

CITY           SKY/WX    TMP DP  RH WIND       PRES   REMARKS
NEWARK/LIBERTY PTSUNNY   89  71  55 S10G20    29.86F HX  95
TETERBORO      PTSUNNY   92  71  50 S12       29.85F HX  98
CALDWELL       MOSUNNY   88  71  57 W7        29.87F HX  94
MORRISTOWN     MOSUNNY   90  73  58 S9        29.88F HX  98
SOMERVILLE     PTSUNNY   88  73  61 S8        29.86F HX  95
LINDEN         MOCLDY    91  72  53 W5        29.88F HX  98
SUSSEX         SUNNY     89  73  59 S9        29.86F HX  97
ANDOVER          N/A     86  71  60 VRB6      29.88F HX  91
TRENTON        MOSUNNY   88  72  58 SW10      29.88F HX  94
MILLVILLE      MOSUNNY   86  73  65 S9        29.91F HX  93
ATLANTIC CITY  SUNNY     86  73  65 S12G23    29.92S HX  93
WRIGHTSTOWN    PTSUNNY   89  72  56 SW15      29.87F HX  96
TOMS RIVER     PTSUNNY   90  72  55 SW10      29.89F HX  96
BELMAR         PTSUNNY   86  73  66 S9        29.89F HX  93
$$

PAZ047>061-062-071-231900-
EASTERN PENNSYLVANIA

CITY           SKY/WX    TMP DP  RH WIND       PRES   REMARKS
PHILADELPHIA   PTSUNNY   89  70  53 SW12      29.89F HX  94
ALLENTOWN      MOSUNNY   89  71  55 SW9       29.88F HX  95
SCRANTON       SUNNY     91  66  43 W12G21    29.87F HX  93
$$

CTZ002-004>006-009-010-012-RIZ004-006-007-MAZ004-011-015-231900-
SOUTHERN NEW ENGLAND
 IN CT

CITY           SKY/WX    TMP DP  RH WIND       PRES   REMARKS
BRADLEY INTL   MOSUNNY   91  70  49 S14G22    29.82F HX  96
HARTFORD       SUNNY     88  71  57 S17G23    29.83F HX  94
DANBURY        MOSUNNY   86  71  60 S9        29.88F HX  91
WTRBRY/OXFORD  PTSUNNY   84  72  65 SW8G22    29.91F
BRIDGEPORT     SUNNY     85  72  65 SW10      29.87F HX  91
MERIDEN        MOSUNNY   87  71  58 S10       29.85F HX  93
NEW HAVEN      MOSUNNY   84  71  65 S9        29.88F
CHESTER        FAIR      84  72  65 S10       29.90S
GROTON         SUNNY     79  71  76 SW14      29.88F
WILLIMANTIC    MOSUNNY   86  70  58 S10G17    29.86F HX  90

 IN RI

CITY           SKY/WX    TMP DP  RH WIND       PRES   REMARKS
PROVIDENCE     MOSUNNY   87  70  56 S20       29.86F HX  92
BLOCK ISLAND   SUNNY     77  66  69 SW18G25   29.91F
WESTERLY       SUNNY     81  69  67 S16       29.90F

 IN MA

CITY           SKY/WX    TMP DP  RH WIND       PRES   REMARKS
BOSTON         MOSUNNY   90  70  51 SW17      29.81F HX  95
WORCESTER      MOSUNNY   84  69  60 SW10      29.87F
WESTFIELD      MOSUNNY   90  71  53 S13       29.81F HX  96
PROVINCETOWN   MOSUNNY   81  72  74 SW17      29.86F
NANTUCKET      SUNNY     72  67  84 S14       29.92F
$$

ANZ330-335-338-340-345-350-353-355-231900-
COASTAL MARINE OBSERVATIONS


STATION/POSITION TIME  SKY/WX   TEMP    WIND        PRES    VSBY  WAVE
                                AIR SEA DIR/SP/G                  HT/PER
                 (UTC)          (F)     (DEG/KT/KT) (MB)    (MI)  (FT/S)
NY HARB ENTRANCE NOT AVBL
4S FIRE IS       NOT AVBL
23SW MTP         1800            73 71              1012.5          3/ 4
HUDSON CANYON    1800            74 74  200/ 10/ 12 1013.9          2/ 7
EXECUTION ROCKS  1800            81 73  200/ 12/ 16   N/A
WESTERN LI SOUND 1800            80     210/  8/ 12   N/A           0
CENTRAL LI SOUND 1700            77 74  200/ 10/ 12   N/A           1/ 3
EASTERN LI SOUND 1700            72 68  210/  8/ 10   N/A
ROBBINS REEF     1800            81     160/ 14/ 16   N/A
$$


>>>>>>>>>>>>>>>>>>>>>>>>>>>> KEY <<<<<<<<<<<<<<<<<<<<<<<<<<<
>                                                          <
>     SKY/WX - SKY CONDITION/PRESENT WEATHER               <
>     TMP    - TEMPERATURE IN FAHRENHEIT                   <
>     DP     - DEWPOINT IN FAHRENHEIT                      <
>     RH     - RELATIVE HUMIDITY IN PERCENT                <
>     WIND   - DIRECTION AND SPEED IN MPH                  <
>     PRES   - MEAN SEA LEVEL PRESSURE IN INCHES OF HG     <
>     WCI    - WIND CHILL INDEX                            <
>     VSB    - VISIBILITY IN MILES                         <
>     HX     - HEAT INDEX                                  <
>     TC     - TEMPERATURE IN CELSIUS                      <
>     VRB    - VARIABLE WIND DIRECTION                     <
>                                                          <
>>>>>>>>>>>>>>>>>>>>>>>>>>>> KEY <<<<<<<<<<<<<<<<<<<<<<<<<<<




USA.gov is the U.S. government's official web portal to all federal, state and local government web resources and services.